Date String (YYYY-MM-DD hh:mm:ss) UTC,Instrument flags,absolute air pressure of the measurement (hPa),sample flow rate (lpm),inlet stack bypass flow (lpm),air temperature of the measurement (°C),ambient temperature measured by the external sensor (°C),aerosol sample conditioner tube jacket temperature (°C),OPC LED temperature (°C),internal box temperature (°C),relative humidity of the measurement (%),span deviation,mass concentration of particles derived from Lorenz-Mie calculation of OPC scattering (μg/m³),mass concentration of particles derived from Lorenz-Mie calculation of OPC scattering (μg/m³),mass concentration of particles derived from Lorenz-Mie calculation of OPC scattering (μg/m³)
DateTimeUTC,F1_M11,P_M11,Q1_M11,Q2_M11,T1_M11,T2_M11,T3_M11,T4_M11,T5_M11,U1_M11,ZSPAN_M11,X0_M11,X2_M11,X1_M11
2023-06-25 21:00:00,SystemResetWarning,0833.2,5.00,000.00,029.1,025.8,000.0,037.6,030.5,30.8,0000.0,0009.91,0004.45,0003.70
2023-06-25 21:01:00,SystemResetWarning,0833.2,5.00,000.00,029.1,026.3,000.0,037.6,030.6,31.0,0000.0,0010.05,0004.48,0003.69
2023-06-25 21:02:00,SystemResetWarning,0833.2,4.99,000.00,029.1,026.7,000.0,037.7,030.7,29.4,0000.0,0010.49,0004.48,0003.67
2023-06-25 21:03:00,SystemResetWarning,0833.2,4.99,000.00,029.2,027.0,000.0,037.7,030.8,29.2,0000.0,0010.26,0004.49,0003.67
2023-06-25 21:04:00,SystemResetWarning,0833.2,5.01,000.00,029.2,027.3,000.0,037.7,030.8,29.1,0000.0,0012.44,0004.52,0003.66
2023-06-25 21:05:00,SystemResetWarning,0833.2,5.00,000.00,029.2,027.6,000.0,037.7,030.9,29.4,0000.0,0013.09,0004.50,0003.65
2023-06-25 21:06:00,SystemResetWarning,0833.2,4.99,000.00,029.3,027.8,000.0,037.7,031.0,28.2,0000.0,0013.62,0004.51,0003.65
2023-06-25 21:07:00,SystemResetWarning,0833.2,5.00,000.00,029.3,027.9,000.0,037.7,031.0,29.0,0000.0,0014.13,0004.54,0003.65
2023-06-25 21:08:00,SystemResetWarning,0833.2,5.00,000.00,029.4,028.0,000.0,037.8,031.1,28.8,0000.0,0014.21,0004.53,0003.66
2023-06-25 21:09:00,SystemResetWarning,0833.2,4.99,000.00,029.4,026.7,000.0,037.7,031.1,27.5,0000.0,0013.82,0004.51,0003.67
2023-06-25 21:10:00,SystemResetWarning,0833.2,5.01,000.00,029.3,024.7,000.0,037.7,030.8,27.9,0000.0,0014.17,0004.51,0003.68
2023-06-25 21:11:00,SystemResetWarning,0833.1,5.01,000.00,029.3,024.3,000.0,037.6,030.8,27.9,0000.0,0014.35,0004.55,0003.69
2023-06-25 21:12:00,SystemResetWarning,0833.1,5.01,000.00,029.2,024.6,000.0,037.6,030.5,27.8,0000.0,0014.23,0004.51,0003.70
2023-06-25 21:13:00,SystemResetWarning,0833.1,5.00,000.00,029.1,025.1,000.0,037.6,030.4,27.4,0000.0,0013.71,0004.49,0003.70
2023-06-25 21:14:00,SystemResetWarning,0833.0,5.00,000.00,029.1,025.6,000.0,037.6,030.5,28.2,0000.0,0013.89,0004.50,0003.70
2023-06-25 21:15:00,SystemResetWarning,0833.0,5.00,000.00,029.1,026.1,000.0,037.6,030.6,28.4,0000.0,0013.18,0004.49,0003.71
2023-06-25 21:16:00,SystemResetWarning,0832.9,5.00,000.00,029.1,026.6,000.0,037.6,030.7,29.7,0000.0,0013.08,0004.52,0003.73
2023-06-25 21:17:00,SystemResetWarning,0833.0,5.00,000.00,029.1,026.9,000.0,037.6,030.8,28.4,0000.0,0012.84,0004.53,0003.74
2023-06-25 21:18:00,SystemResetWarning,0833.1,5.00,000.00,029.2,027.2,000.0,037.7,030.8,29.2,0000.0,0012.78,0004.52,0003.76
2023-06-25 21:19:00,SystemResetWarning,0833.1,4.99,000.00,029.2,027.5,000.0,037.7,030.9,29.1,0000.0,0012.56,0004.52,0003.77
2023-06-25 21:20:00,SystemResetWarning,0832.9,5.00,000.00,029.3,027.7,000.0,037.7,031.0,28.1,0000.0,0012.96,0004.58,0003.78
2023-06-25 21:21:00,SystemResetWarning,0833.1,5.00,000.00,029.3,027.9,000.0,037.7,031.0,27.5,0000.0,0013.13,0004.60,0003.77
2023-06-25 21:22:00,SystemResetWarning,0833.0,5.00,000.00,029.4,028.0,000.0,037.7,031.1,28.0,0000.0,0012.92,0004.59,0003.77
2023-06-25 21:23:00,SystemResetWarning,0833.0,4.99,000.00,029.4,026.4,000.0,037.7,031.1,28.2,0000.0,0013.10,0004.62,0003.77
2023-06-25 21:24:00,SystemResetWarning,0833.3,5.01,000.00,029.3,024.6,000.0,037.6,031.0,28.1,0000.0,0013.39,0004.62,0003.77
2023-06-25 21:25:00,SystemResetWarning,0832.9,5.01,000.00,029.3,024.3,000.0,037.6,030.9,28.1,0000.0,0013.40,0004.61,0003.77
2023-06-25 21:26:00,SystemResetWarning,0832.9,5.00,000.00,029.2,024.7,000.0,037.6,030.5,29.0,0000.0,0012.57,0004.59,0003.77
2023-06-25 21:27:00,SystemResetWarning,0833.2,5.00,000.00,029.1,025.2,000.0,037.6,030.5,29.4,0000.0,0011.86,0004.57,0003.77
2023-06-25 21:28:00,SystemResetWarning,0833.3,5.00,000.00,029.1,025.7,000.0,037.6,030.5,29.3,0000.0,0012.34,0004.58,0003.76
2023-06-25 21:29:00,SystemResetWarning,0833.2,5.00,000.00,029.1,026.2,000.0,037.6,030.7,29.1,0000.0,0012.66,0004.57,0003.76
2023-06-25 21:30:00,SystemResetWarning,0833.3,5.00,000.00,029.1,026.7,000.0,037.6,030.8,29.4,0000.0,0012.79,0004.60,0003.75
2023-06-25 21:31:00,SystemResetWarning,0833.3,4.99,000.00,029.2,027.1,000.0,037.6,030.8,30.3,0000.0,0012.64,0004.58,0003.74
2023-06-25 21:32:00,SystemResetWarning,0833.3,5.00,000.00,029.2,027.4,000.0,037.7,030.9,29.0,0000.0,0012.64,0004.58,0003.74
2023-06-25 21:33:00,SystemResetWarning,0833.2,5.01,000.00,029.3,027.6,000.0,037.7,030.9,29.2,0000.0,0013.43,0004.57,0003.75
2023-06-25 21:34:00,SystemResetWarning,0833.0,5.00,000.00,029.3,027.8,000.0,037.7,031.0,29.2,0000.0,0013.68,0004.56,0003.74
2023-06-25 21:35:00,SystemResetWarning,0833.1,4.99,000.00,029.3,028.0,000.0,037.7,031.1,29.1,0000.0,0014.81,0004.56,0003.74
2023-06-25 21:36:00,SystemResetWarning,0832.8,5.00,000.00,029.4,027.1,000.0,037.7,031.1,29.1,0000.0,0014.98,0004.55,0003.73
2023-06-25 21:37:00,SystemResetWarning,0833.2,5.00,000.00,029.4,025.5,000.0,037.7,031.1,29.4,0000.0,0015.08,0004.57,0003.72
2023-06-25 21:38:00,SystemResetWarning,0833.3,5.00,000.00,029.4,025.3,000.0,037.6,031.0,29.4,0000.0,0014.84,0004.56,0003.70
2023-06-25 21:39:00,SystemResetWarning,0833.0,5.01,000.00,029.3,025.6,000.0,037.7,030.7,29.4,0000.0,0014.45,0004.55,0003.69
2023-06-25 21:40:00,SystemResetWarning,0832.8,5.02,000.00,029.2,026.1,000.0,037.7,030.7,30.8,0000.0,0014.10,0004.54,0003.67
2023-06-25 21:41:00,SystemResetWarning,0832.8,4.99,000.00,029.3,026.5,000.0,037.7,030.8,30.3,0000.0,0013.69,0004.53,0003.65
2023-06-25 21:42:00,SystemResetWarning,0832.8,5.00,000.00,029.3,026.9,000.0,037.7,030.9,30.8,0000.0,0013.87,0004.49,0003.64
2023-06-25 21:43:00,SystemResetWarning,0832.7,5.00,000.00,029.3,027.3,000.0,037.7,031.0,31.6,0000.0,0014.44,0004.50,0003.61
2023-06-25 21:44:00,SystemResetWarning,0832.8,4.99,000.00,029.3,027.6,000.0,037.8,031.0,32.0,0000.0,0013.99,0004.54,0003.58
2023-06-25 21:45:00,SystemResetWarning,0832.8,4.99,000.00,029.4,027.8,000.0,037.8,031.1,30.9,0000.0,0013.81,0004.58,0003.57
2023-06-25 21:46:00,SystemResetWarning,0832.9,4.99,000.00,029.4,027.2,000.0,037.8,031.1,30.2,0000.0,0012.49,0004.58,0003.56
2023-06-25 21:47:00,SystemResetWarning,0832.8,5.00,000.00,029.4,025.5,000.0,037.7,031.1,29.4,0000.0,0012.85,0004.60,0003.55
2023-06-25 21:48:00,SystemResetWarning,0832.7,5.00,000.00,029.4,025.3,000.0,037.7,031.0,29.2,0000.0,0013.01,0004.59,0003.54
2023-06-25 21:49:00,SystemResetWarning,0832.8,5.01,000.00,029.3,025.6,000.0,037.7,030.8,29.7,0000.0,0013.55,0004.57,0003.52
2023-06-25 21:50:00,SystemResetWarning,0832.8,5.01,000.00,029.3,026.1,000.0,037.7,030.7,30.8,0000.0,0014.31,0004.55,0003.49
2023-06-25 21:51:00,SystemResetWarning,0832.8,5.00,000.00,029.3,026.5,000.0,037.7,030.8,30.6,0000.0,0014.25,0004.53,0003.47
2023-06-25 21:52:00,SystemResetWarning,0832.8,4.99,000.00,029.3,026.9,000.0,037.8,030.9,30.9,0000.0,0014.03,0004.48,0003.46
2023-06-25 21:53:00,SystemResetWarning,0832.8,5.00,000.00,029.3,027.2,000.0,037.8,031.0,31.0,0000.0,0013.64,0004.47,0003.44
2023-06-25 21:54:00,SystemResetWarning,0832.8,5.00,000.00,029.4,027.5,000.0,037.8,031.0,30.6,0000.0,0013.13,0004.47,0003.45
2023-06-25 21:55:00,SystemResetWarning,0832.7,5.00,000.00,029.4,027.7,000.0,037.8,031.1,30.2,0000.0,0013.54,0004.40,0003.45
2023-06-25 21:56:00,SystemResetWarning,0832.8,4.99,000.00,029.5,026.3,000.0,037.8,031.2,29.7,0000.0,0013.43,0004.31,0003.43
2023-06-25 21:57:00,SystemResetWarning,0832.7,5.01,000.00,029.4,024.6,000.0,037.7,030.9,30.9,0000.0,0013.50,0004.32,0003.43
2023-06-25 21:58:00,SystemResetWarning,0832.7,5.02,000.00,029.4,024.3,000.0,037.7,030.9,30.1,0000.0,0013.35,0004.34,0003.42
2023-06-25 21:59:00,SystemResetWarning,0832.6,4.99,000.00,029.2,024.7,000.0,037.7,030.6,31.0,0000.0,0013.63,0004.34,0003.41
